This is the latest recevied weather packets stored in our database for station/object W1RCY. If no packets are shown the sender has not sent any weather packets the latest 10 day(s).
| Time | Temp. | Humidity | Pressure | Rain* | Wind** | Luminosity | Snow |
|---|---|---|---|---|---|---|---|
| 1777741744 | 9.44° C | 86% | 1009.6 hPa | 0 mm | - | 64 W/m² | - |
| 1777741441 | 9.44° C | 85% | 1009.5 hPa | 0 mm | - | 184 W/m² | - |
| 1777741136 | 9.44° C | 86% | 1009.5 hPa | 0 mm | - | 251 W/m² | - |
| 1777740834 | 10° C | 86% | 1009.6 hPa | 0 mm | - | 642 W/m² | - |
| 1777740531 | 9.44° C | 88% | 1009.7 hPa | 0 mm | - | 272 W/m² | - |
| 1777740228 | 8.89° C | 89% | 1009.5 hPa | 0 mm | - | 260 W/m² | - |
| 1777739924 | 8.89° C | 91% | 1009.7 hPa | 0 mm | - | 240 W/m² | - |
| 1777739620 | 8.89° C | 90% | 1009.8 hPa | 0 mm | - | 168 W/m² | - |
| 1777739318 | 8.89° C | 90% | 1009.8 hPa | 0 mm | - | 175 W/m² | - |
| 1777739014 | 8.33° C | 91% | 1010.1 hPa | 0 mm | - | 127 W/m² | - |
| 1777738712 | 8.33° C | 91% | 1010 hPa | 0 mm | - | 163 W/m² | - |
| 1777738407 | 8.33° C | 91% | 1010 hPa | 0 mm | - | 159 W/m² | - |
| 1777738106 | 8.33° C | 91% | 1010 hPa | 0 mm | - | 193 W/m² | - |
| 1777737804 | 7.78° C | 91% | 1010 hPa | 0 mm | - | 242 W/m² | - |
| 1777737503 | 8.33° C | 91% | 1009.9 hPa | 0 mm | - | 168 W/m² | - |
| 1777737200 | 8.33° C | 91% | 1010.2 hPa | 0 mm | - | 142 W/m² | - |
| 1777736896 | 8.33° C | 92% | 1010.3 hPa | 0 mm | - | 105 W/m² | - |
| 1777736288 | 7.78° C | 93% | 1010.2 hPa | 0 mm | - | 85 W/m² | - |
| 1777735984 | 8.33° C | 94% | 1010.5 hPa | 0 mm | - | 85 W/m² | - |
| 1777735682 | 7.78° C | 93% | 1010.1 hPa | 0 mm | - | 117 W/m² | - |
| 1777735379 | 7.78° C | 93% | 1010.2 hPa | 0 mm | - | 127 W/m² | - |
| 1777735077 | 7.78° C | 94% | 1010.3 hPa | 0 mm | - | 198 W/m² | - |
| 1777734773 | 7.78° C | 94% | 1010.2 hPa | 0 mm | - | 196 W/m² | - |
| 1777734472 | 7.78° C | 94% | 1010 hPa | 0 mm | - | 156 W/m² | - |
| 1777734168 | 7.78° C | 93% | 1010.3 hPa | 0 mm | - | 126 W/m² | - |
* Rain latest hour (hover to see other rain measurements)
** Current wind speed in m/s (hover to see current wind gust speed)